[[{"header":{"parameterUnit":"m.s-1","parameterCategory":1,"la1":30.2991,"la2":30.254,"lo1":-89.0895,"lo2":-89.0444,"dy":0.0017,"dx":0.0017,"nx":28,"ny":28,"refTime":"2025-12-05T03:00:00:Z","depth":0,"parameterNumber":2,"parameterNumberName":"U-component_of_WINDS"},"data":[0,0,0,0,0,0,0,0,0,0,0,0,0,0,0,0,0,0,0,0,0,0,0,0,0,0,0,0,0,0,0,0,0,0,0,0,0,0,0,0,0,0,0,0,0,0,0,0,0,0,0,0,0,0,0,0,0,0,-0.3643,-0.3644,0,-0.3745,-0.3746,-0.3747,-0.3759,-0.3757,-0.3756,-0.3755,-0.3863,-0.3867,-0.3871,0,0,0,0,0,0,0,0,0,0,0,0,0,-0.3458,-0.3462,-0.3643,-0.3644,-0.3645,-0.3744,-0.3746,-0.3747,-0.3759,-0.3757,-0.3756,-0.3755,-0.3862,-0.3866,-0.3871,0,0,0,0,0,0,0,0,0,0,0,0,0,-0.3547,-0.3463,-0.3642,-0.3663,-0.3666,-0.3744,-0.3746,-0.3748,-0.3759,-0.3757,-0.3756,-0.3754,-0.386,-0.3866,-0.3872,-0.3938,0,0,-0.3889,-0.3892,0,0,0,0,0,0,0,0,-0.3542,-0.3554,-0.3658,-0.3661,-0.3665,-0.3737,-0.372,-0.3811,-0.3759,-0.3724,-0.3755,-0.3754,-0.3823,-0.3831,-0.3854,-0.3943,-0.3947,-0.389,-0.3893,-0.3895,-0.3897,0,0,0,0,0,0,0,-0.3536,-0.355,-0.3683,-0.366,-0.3664,-0.3667,-0.3678,-0.3738,-0.3781,-0.3727,-0.3728,-0.3739,-0.3824,-0.3848,-0.3857,-0.3949,-0.3889,-0.3894,-0.3898,-0.39,-0.4095,-0.4097,0,0,0,0,0,0,-0.3526,-0.3545,-0.368,-0.3686,-0.3598,-0.3672,-0.3684,-0.3716,-0.378,-0.3788,-0.3741,-0.374,-0.3839,-0.385,-0.386,-0.3941,-0.3895,-0.3901,-0.3904,-0.4093,-0.4095,-0.4097,0,0,0,0,0,0,-0.3522,-0.3538,-0.3676,-0.3616,-0.3633,-0.3676,-0.3712,-0.3718,-0.3743,-0.3791,-0.3798,-0.3758,-0.3839,-0.3852,-0.3918,-0.3945,-0.3903,-0.3909,-0.4091,-0.4094,-0.4096,-0.4104,0,0,0,0,0,0,-0.3517,-0.3536,-0.3562,-0.3616,-0.3637,-0.3731,-0.3714,-0.3721,-0.3752,-0.3752,-0.3809,-0.3817,-0.3838,-0.3909,-0.3923,-0.3952,-0.3913,-0.4089,-0.4092,-0.4095,-0.4101,-0.4106,-0.4111,0,0,0,0,0,-0.351,-0.3561,-0.3563,-0.358,-0.3669,-0.3733,-0.3745,-0.3768,-0.3754,-0.3781,-0.3811,-0.3815,-0.3939,-0.3916,-0.3932,-0.3963,-0.4087,-0.4091,-0.4095,-0.4099,-0.4105,-0.4111,0,0,0,0,0,0,-0.3511,-0.3569,-0.3572,-0.3642,-0.3682,-0.3735,-0.3769,-0.3774,-0.382,-0.3818,-0.3845,-0.3858,-0.3922,-0.3949,-0.3921,-0.4029,-0.4012,-0.4019,-0.401,-0.4016,-0.402,-0.4013,-0.3918,0,0,0,0,0,-0.3519,-0.3565,-0.3613,-0.3671,-0.3691,-0.3726,-0.3754,-0.3768,-0.3812,-0.3829,-0.3864,-0.3907,-0.3955,-0.3987,-0.4034,-0.4104,-0.4117,-0.4134,-0.4138,-0.4142,-0.4148,-0.4186,-0.4194,-0.411,-0.411,-0.411,0,0,-0.3538,-0.3575,-0.3602,-0.3672,-0.3705,-0.3752,-0.374,-0.3791,-0.3827,-0.3837,-0.3901,-0.3927,-0.3976,-0.4044,-0.4076,-0.4069,-0.4173,-0.4147,-0.4149,-0.4154,-0.4191,-0.4198,-0.4205,-0.4113,-0.4112,-0.4112,0,0,-0.3595,-0.3627,-0.3678,-0.371,-0.3759,-0.3782,-0.3793,-0.3845,-0.3862,-0.3926,-0.3934,-0.3976,-0.406,-0.4094,-0.4122,-0.4188,-0.4193,-0.4202,-0.4227,-0.4264,-0.427,-0.4276,-0.4299,-0.4307,-0.4208,-0.4208,-0.4208,0,-0.3612,-0.3682,-0.3704,-0.3754,-0.3784,-0.3793,-0.3844,-0.3875,-0.3937,-0.3957,-0.3948,-0.4051,-0.4085,-0.4159,-0.4175,-0.4198,-0.4212,-0.4197,-0.4267,-0.4274,-0.4279,-0.4302,-0.431,-0.4209,-0.4209,-0.4209,-0.4209,0,-0.37,-0.3749,-0.3784,-0.3842,-0.3876,-0.3926,-0.3955,-0.3986,-0.3996,-0.4019,-0.4083,-0.4123,-0.4178,-0.4196,-0.4208,-0.4272,-0.4266,-0.4261,-0.4245,-0.4288,-0.4309,-0.4318,-0.421,-0.421,-0.421,-0.421,0,0,-0.3764,-0.383,-0.3843,-0.3869,-0.3922,-0.396,-0.401,-0.4062,-0.4088,-0.4129,-0.4172,-0.424,-0.4235,-0.4267,-0.4282,-0.4314,-0.4362,-0.4305,-0.4307,-0.4314,-0.4434,-0.4438,-0.4448,-0.4365,-0.4366,-0.4368,-0.443,0,-0.3828,-0.3916,-0.3935,-0.4012,-0.4057,-0.4064,-0.4108,-0.4145,-0.4167,-0.4208,-0.4233,-0.4281,-0.4271,-0.429,-0.4321,-0.4349,-0.4387,-0.4345,-0.4405,-0.4407,-0.4393,-0.4459,-0.4464,-0.4521,-0.4439,-0.444,-0.4441,0,-0.3915,-0.3956,-0.4037,-0.4081,-0.4101,-0.4139,-0.4187,-0.4226,-0.4268,-0.4281,-0.4315,-0.4325,-0.4377,-0.4356,-0.4427,-0.4398,-0.4423,-0.4441,-0.4443,-0.4451,-0.4427,-0.4468,-0.454,-0.4548,-0.4455,-0.4454,-0.4453,0,-0.3953,-0.4029,-0.4087,-0.4108,-0.4162,-0.4188,-0.4212,-0.4252,-0.4281,-0.4322,-0.4341,-0.4389,-0.4415,-0.4451,-0.4474,-0.4457,-0.4543,-0.4524,-0.4556,-0.4555,-0.4575,-0.4574,-0.4652,-0.459,-0.459,-0.459,-0.4589,0,-0.4023,-0.4072,-0.4104,-0.414,-0.4194,-0.4215,-0.4268,-0.4292,-0.4326,-0.4366,-0.4376,-0.4413,-0.444,-0.4481,-0.4499,-0.4554,-0.4566,-0.4579,-0.4583,-0.4578,-0.4577,-0.4596,-0.4593,-0.4592,-0.4591,-0.4591,-0.4591,0,-0.4076,-0.41,-0.4163,-0.4207,-0.4219,-0.4257,-0.4295,-0.433,-0.435,-0.4401,-0.4414,-0.4447,-0.4495,-0.452,-0.4581,-0.4593,-0.4655,-0.4657,-0.4641,-0.4643,-0.4673,-0.467,-0.4767,-0.478,-0.4709,-0.471,-0.471,0,-0.412,-0.4157,-0.4204,-0.4231,-0.4254,-0.4298,-0.4326,-0.4347,-0.4377,-0.4425,-0.4453,-0.4501,-0.4541,-0.4618,-0.4647,-0.4693,-0.4697,-0.4727,-0.4704,-0.4697,-0.4697,-0.4695,-0.4698,-0.4732,-0.4733,-0.4733,-0.4734,0,-0.4194,-0.4203,-0.4244,-0.4288,-0.4322,-0.4358,-0.4394,-0.4415,-0.4441,-0.4474,-0.4522,-0.4553,-0.4613,-0.4661,-0.4708,-0.4733,-0.4738,-0.474,-0.475,-0.4746,-0.4735,-0.4741,-0.4653,-0.4739,-0.4738,-0.4738,-0.4737,-0.4737,-0.4244,-0.4277,-0.4314,-0.4359,-0.4387,-0.442,-0.4453,-0.4477,-0.4517,-0.4567,-0.4577,-0.4628,-0.4665,-0.4729,-0.4755,-0.4795,-0.4788,-0.4803,-0.4806,-0.481,-0.4811,-0.4727,-0.4803,-0.4803,-0.4803,-0.4803,-0.4803,0,-0.4319,-0.4343,-0.4383,-0.4432,-0.4466,-0.4465,-0.4504,-0.4533,-0.4577,-0.4611,-0.4649,-0.4704,-0.4749,-0.478,-0.4826,-0.4852,-0.4855,-0.4863,-0.4862,-0.4867,-0.4814,-0.4801,-0.486,-0.486,-0.486,-0.486,-0.486,-0.486,-0.4362,-0.4417,-0.443,-0.4498,-0.4522,-0.4571,-0.4593,-0.4622,-0.4649,-0.4709,-0.4746,-0.4765,-0.4798,-0.4846,-0.4887,-0.4895,-0.4911,-0.4919,-0.4927,-0.4877,-0.4871,-0.4866,-0.4854,-0.4923,-0.4923,-0.4978,-0.4978,-0.4978]},{"header":{"parameterUnit":"m.s-1","parameterCategory":1,"la1":30.2991,"la2":30.254,"lo1":-89.0895,"lo2":-89.0444,"dy":0.0017,"dx":0.0017,"nx":28,"ny":28,"refTime":"2025-12-05T03:00:00:Z","depth":0,"parameterNumber":3,"parameterNumberName":"V-component_of_WINDS"},"data":[0,0,0,0,0,0,0,0,0,0,0,0,0,0,0,0,0,0,0,0,0,0,0,0,0,0,0,0,0,0,0,0,0,0,0,0,0,0,0,0,0,0,0,0,0,0,0,0,0,0,0,0,0,0,0,0,0,0,-5.316,-5.3159,0,-5.3111,-5.3111,-5.311,-5.3,-5.2997,-5.2995,-5.2993,-5.2941,-5.2942,-5.2943,0,0,0,0,0,0,0,0,0,0,0,0,0,-5.3152,-5.3153,-5.316,-5.3159,-5.3159,-5.3111,-5.3111,-5.311,-5.3,-5.2997,-5.2995,-5.2992,-5.2941,-5.2942,-5.2943,0,0,0,0,0,0,0,0,0,0,0,0,0,-5.3135,-5.3153,-5.316,-5.3098,-5.3092,-5.3112,-5.3111,-5.311,-5.3001,-5.2997,-5.2994,-5.2991,-5.2941,-5.2942,-5.2943,-5.3018,0,0,-5.2946,-5.2947,0,0,0,0,0,0,0,0,-5.3136,-5.3135,-5.3108,-5.3102,-5.3096,-5.3058,-5.3089,-5.3079,-5.3002,-5.3035,-5.2993,-5.2989,-5.2983,-5.298,-5.2979,-5.3015,-5.3013,-5.2946,-5.2947,-5.2948,-5.2948,0,0,0,0,0,0,0,-5.3137,-5.3137,-5.314,-5.3108,-5.31,-5.3071,-5.3065,-5.3087,-5.3029,-5.3032,-5.3024,-5.302,-5.2979,-5.2978,-5.2977,-5.3012,-5.2946,-5.2947,-5.2948,-5.2948,-5.3102,-5.3105,0,0,0,0,0,0,-5.3148,-5.3139,-5.3142,-5.3139,-5.3108,-5.3074,-5.3067,-5.3074,-5.3028,-5.3018,-5.3023,-5.3015,-5.2978,-5.2975,-5.2974,-5.3055,-5.2948,-5.2949,-5.2949,-5.3099,-5.3103,-5.3107,0,0,0,0,0,0,-5.3148,-5.315,-5.3144,-5.3137,-5.3134,-5.3078,-5.3086,-5.3074,-5.3073,-5.3021,-5.301,-5.3033,-5.2975,-5.2973,-5.3007,-5.3052,-5.2949,-5.295,-5.3095,-5.31,-5.3105,-5.322,0,0,0,0,0,0,-5.3149,-5.315,-5.318,-5.3138,-5.3135,-5.3179,-5.3089,-5.3076,-5.3076,-5.3065,-5.3027,-5.3018,-5.2972,-5.3006,-5.3008,-5.3051,-5.2951,-5.309,-5.3097,-5.3103,-5.3212,-5.3228,-5.3243,0,0,0,0,0,-5.3149,-5.3215,-5.3182,-5.3183,-5.317,-5.3182,-5.318,-5.3126,-5.308,-5.3108,-5.3073,-5.3019,-5.3047,-5.301,-5.3012,-5.3056,-5.3087,-5.3095,-5.3103,-5.3205,-5.3225,-5.3242,0,0,0,0,0,0,-5.3264,-5.3208,-5.3171,-5.3226,-5.321,-5.3164,-5.3197,-5.315,-5.3146,-5.3136,-5.3069,-5.3061,-5.3104,-5.3083,-5.3043,-5.3123,-5.3058,-5.3066,-5.3135,-5.3154,-5.3169,-5.3172,-5.2952,0,0,0,0,0,-5.3295,-5.3311,-5.3261,-5.3314,-5.3308,-5.3254,-5.3258,-5.3217,-5.3197,-5.319,-5.3158,-5.314,-5.3143,-5.3148,-5.3149,-5.3209,-5.3196,-5.324,-5.3255,-5.3268,-5.3275,-5.33,-5.3318,-5.3132,-5.3132,-5.3132,0,0,-5.3361,-5.3333,-5.3347,-5.3336,-5.3319,-5.3334,-5.3249,-5.327,-5.328,-5.3193,-5.3222,-5.3198,-5.3173,-5.3219,-5.3237,-5.3203,-5.3324,-5.3278,-5.3288,-5.3289,-5.331,-5.3328,-5.3343,-5.3137,-5.3136,-5.3135,0,0,-5.3488,-5.347,-5.3509,-5.3493,-5.3467,-5.3431,-5.344,-5.3401,-5.3381,-5.341,-5.3343,-5.3353,-5.3363,-5.3346,-5.3339,-5.3455,-5.3403,-5.3457,-5.3537,-5.3562,-5.3576,-5.3589,-5.3627,-5.3641,-5.3465,-5.3465,-5.3465,0,-5.3572,-5.3594,-5.3536,-5.356,-5.3555,-5.3477,-5.3515,-5.3501,-5.3478,-5.3475,-5.3438,-5.3445,-5.3423,-5.3461,-5.3489,-5.3487,-5.3493,-5.3461,-5.3579,-5.3591,-5.3602,-5.3637,-5.3652,-5.3472,-5.3471,-5.347,-5.347,0,-5.3697,-5.3713,-5.3748,-5.3726,-5.3726,-5.3757,-5.3701,-5.3708,-5.3667,-5.3633,-5.366,-5.3631,-5.3622,-5.3629,-5.359,-5.366,-5.3639,-5.3592,-5.3524,-5.3627,-5.3659,-5.3672,-5.3481,-5.3479,-5.3477,-5.3475,0,0,-5.3896,-5.3839,-5.3853,-5.384,-5.3804,-5.3814,-5.384,-5.3832,-5.3836,-5.3822,-5.3839,-5.3848,-5.3802,-5.3794,-5.3751,-5.3774,-5.3862,-5.3722,-5.372,-5.3746,-5.3933,-5.3968,-5.3985,-5.3828,-5.3831,-5.3833,-5.3934,0,-5.4013,-5.4054,-5.4001,-5.4054,-5.4065,-5.3988,-5.401,-5.3989,-5.3958,-5.3961,-5.3926,-5.3931,-5.3872,-5.3866,-5.3885,-5.3848,-5.3899,-5.384,-5.3841,-5.3842,-5.3847,-5.4002,-5.4039,-5.4136,-5.3947,-5.3949,-5.395,0,-5.4154,-5.4145,-5.4199,-5.4155,-5.4158,-5.4179,-5.4164,-5.417,-5.4143,-5.4118,-5.4107,-5.4056,-5.4075,-5.4011,-5.4034,-5.3995,-5.3992,-5.3973,-5.3975,-5.3972,-5.3901,-5.3999,-5.4167,-5.418,-5.397,-5.3968,-5.3967,0,-5.429,-5.4291,-5.4322,-5.4313,-5.4265,-5.428,-5.4261,-5.423,-5.4227,-5.4214,-5.421,-5.42,-5.4194,-5.4186,-5.4132,-5.4091,-5.416,-5.4092,-5.4137,-5.4138,-5.4153,-5.4153,-5.432,-5.4157,-5.4156,-5.4156,-5.4156,0,-5.4424,-5.4459,-5.4381,-5.44,-5.4436,-5.4373,-5.4409,-5.4381,-5.4354,-5.4364,-5.4297,-5.4308,-5.4237,-5.4238,-5.4196,-5.4219,-5.4218,-5.4196,-5.4183,-5.42,-5.4203,-5.4196,-5.4186,-5.416,-5.4159,-5.4158,-5.4158,0,-5.4581,-5.4531,-5.4559,-5.451,-5.4498,-5.4526,-5.4482,-5.4496,-5.4459,-5.4472,-5.4472,-5.4414,-5.4412,-5.4357,-5.4344,-5.4315,-5.4354,-5.4331,-5.4363,-5.4355,-5.4401,-5.4396,-5.4568,-5.4585,-5.4414,-5.4416,-5.4417,0,-5.4669,-5.4693,-5.4646,-5.4648,-5.4631,-5.4636,-5.4631,-5.4569,-5.4567,-5.4536,-5.4552,-5.4545,-5.4536,-5.4536,-5.4491,-5.4479,-5.4453,-5.4514,-5.4451,-5.4465,-5.4449,-5.4447,-5.4447,-5.4527,-5.4529,-5.4531,-5.4532,0,-5.4828,-5.4801,-5.4798,-5.4786,-5.4783,-5.477,-5.4752,-5.4757,-5.4689,-5.4689,-5.4686,-5.4679,-5.4664,-5.4656,-5.4636,-5.4612,-5.4559,-5.4552,-5.4561,-5.4577,-5.4593,-5.4581,-5.4396,-5.4548,-5.4547,-5.4545,-5.4545,-5.4544,-5.4951,-5.4967,-5.4935,-5.4933,-5.4913,-5.4898,-5.4907,-5.487,-5.4867,-5.485,-5.4814,-5.4815,-5.4783,-5.475,-5.4731,-5.4729,-5.4698,-5.4712,-5.4715,-5.4719,-5.4726,-5.4596,-5.4726,-5.4725,-5.4725,-5.4724,-5.4724,0,-5.5104,-5.5079,-5.5077,-5.5054,-5.5051,-5.5003,-5.498,-5.498,-5.4983,-5.4958,-5.4949,-5.4943,-5.4934,-5.4888,-5.4873,-5.488,-5.4855,-5.4878,-5.4875,-5.4869,-5.4757,-5.4749,-5.4898,-5.4898,-5.4898,-5.4898,-5.4898,-5.4898,-5.5183,-5.5207,-5.5176,-5.5188,-5.5162,-5.5163,-5.5154,-5.5138,-5.5117,-5.5113,-5.5105,-5.5075,-5.504,-5.5021,-5.5009,-5.4995,-5.4991,-5.5022,-5.4999,-5.4895,-5.4878,-5.4862,-5.4854,-5.5022,-5.5022,-5.5111,-5.5112,-5.5113]}]]